Terug naar catalogus

STARLINK-31484

ActiefCommunicatieVLEO
NORAD 59005·PAYLOAD·🇺🇸 United States

Gelanceerd Feb 23, 2024 vanaf Vandenberg Space Force Base

Loading…

Volgende Passages (komende 24 uur)

TLE

VersSource: CelesTrak SupGP

Epoch: Sep 15, 2026, 01:42 UTC

1 59005C 24036H   26258.07131944  .00018198  00000+0  53741-3 0  2583
2 59005  53.1573 276.8642 0001316  82.4841 185.3666 15.34396783    13

Volg STARLINK-31484 in realtime met AllMySat

Download on the App Store